GEC225 EDDF-UKLL

Flight info

Callsign GEC225
Flight time N/A
Altitude 35000
Route SULUS4D/07C SULUS L984 KULOK DCT OKG DCT PADKA DCT DIBED
Aircraft MD11/H-SDE1E2E3FGHIJ2J3J4J5M1RWXY/LB1D1

Departure

Time N/A
Airport Frankfurt Main Airport (EDDF)

Arrival

Time 2026-04-22 19:02
Airport Lviv International Airport (UKLL)
Time Latitude Longitude Altitude Speed Heading
2026-04-22 18:20 49.94220 19.39982 37159 ft 443 kts 87°
2026-04-22 18:20 49.94236 19.49536 37164 ft 443 kts 87°
2026-04-22 18:21 49.94229 19.59099 37161 ft 443 kts 87°
2026-04-22 18:21 49.94184 19.68665 37151 ft 443 kts 87°
2026-04-22 18:22 49.94156 19.78219 37155 ft 443 kts 87°
2026-04-22 18:22 49.94137 19.87778 37154 ft 443 kts 87°
2026-04-22 18:23 49.94114 19.97280 37157 ft 443 kts 87°
2026-04-22 18:23 49.94100 20.02062 37039 ft 444 kts 87°
2026-04-22 18:23 49.94083 20.06823 36778 ft 439 kts 87°
2026-04-22 18:24 49.94057 20.13132 36431 ft 437 kts 87°
2026-04-22 18:24 49.94036 20.17834 36177 ft 435 kts 87°
2026-04-22 18:24 49.93989 20.27184 35667 ft 431 kts 87°
2026-04-22 18:25 49.93963 20.31767 35427 ft 430 kts 87°
2026-04-22 18:25 49.93935 20.36397 35181 ft 428 kts 87°
2026-04-22 18:25 49.93905 20.40997 34940 ft 426 kts 87°
2026-04-22 18:26 49.93842 20.50088 34484 ft 424 kts 87°
2026-04-22 18:26 49.93807 20.54651 34252 ft 422 kts 87°
2026-04-22 18:26 49.93770 20.59211 33995 ft 421 kts 87°
2026-04-22 18:26 49.93732 20.63745 33712 ft 421 kts 87°
2026-04-22 18:27 49.93693 20.68282 33431 ft 421 kts 87°
2026-04-22 18:27 49.93652 20.72774 33142 ft 422 kts 87°
2026-04-22 18:27 49.93608 20.77392 32864 ft 422 kts 87°
2026-04-22 18:27 49.93564 20.81886 32595 ft 423 kts 87°
2026-04-22 18:28 49.93510 20.86466 32330 ft 425 kts 88°
2026-04-22 18:28 49.93437 20.91057 32093 ft 426 kts 88°
2026-04-22 18:28 49.93364 20.95661 31834 ft 428 kts 88°
2026-04-22 18:28 49.93295 21.00287 31568 ft 429 kts 88°
2026-04-22 18:29 49.93230 21.04918 31314 ft 430 kts 88°
2026-04-22 18:29 49.93169 21.09556 31063 ft 431 kts 88°
2026-04-22 18:29 49.93108 21.14212 30810 ft 432 kts 88°
2026-04-22 18:29 49.93048 21.18812 30564 ft 433 kts 88°
2026-04-22 18:30 49.92984 21.23491 30315 ft 434 kts 88°
2026-04-22 18:30 49.92863 21.32869 29744 ft 435 kts 86°
2026-04-22 18:30 49.93148 21.37519 29452 ft 432 kts 76°
2026-04-22 18:31 49.93927 21.42006 29204 ft 431 kts 70°
2026-04-22 18:31 49.94949 21.46389 28920 ft 432 kts 68°
2026-04-22 18:31 49.95983 21.50771 28633 ft 434 kts 72°
2026-04-22 18:31 49.96578 21.55382 28362 ft 438 kts 81°
2026-04-22 18:32 49.96632 21.60072 28084 ft 443 kts 91°
2026-04-22 18:32 49.96139 21.64883 27810 ft 449 kts 99°
2026-04-22 18:32 49.95376 21.69589 27539 ft 449 kts 99°
2026-04-22 18:32 49.94702 21.74249 27275 ft 446 kts 96°
2026-04-22 18:33 49.94204 21.78975 27010 ft 443 kts 93°
2026-04-22 18:33 49.93864 21.83723 26741 ft 441 kts 91°
2026-04-22 18:33 49.93629 21.88449 26502 ft 439 kts 90°
2026-04-22 18:33 49.93448 21.93174 26245 ft 438 kts 89°
2026-04-22 18:34 49.93288 21.97945 25991 ft 449 kts 89°
2026-04-22 18:34 49.93130 22.02827 25738 ft 455 kts 89°
2026-04-22 18:34 49.92964 22.07737 25498 ft 456 kts 89°
2026-04-22 18:34 49.92792 22.12643 25246 ft 455 kts 89°
2026-04-22 18:35 49.92616 22.17480 25003 ft 454 kts 89°
2026-04-22 18:35 49.92434 22.22366 24765 ft 453 kts 89°
2026-04-22 18:35 49.92251 22.27241 24519 ft 452 kts 89°
2026-04-22 18:35 49.92066 22.32092 24292 ft 450 kts 89°
2026-04-22 18:36 49.91880 22.36937 24076 ft 449 kts 89°
2026-04-22 18:36 49.91693 22.41778 23843 ft 449 kts 89°
2026-04-22 18:36 49.91503 22.46614 23599 ft 448 kts 90°
2026-04-22 18:36 49.91313 22.51435 23319 ft 447 kts 90°
2026-04-22 18:37 49.91121 22.56235 23042 ft 446 kts 90°
2026-04-22 18:37 49.90929 22.60969 22769 ft 445 kts 90°
2026-04-22 18:37 49.90798 22.64200 22585 ft 444 kts 90°
2026-04-22 18:37 49.90537 22.70521 22227 ft 443 kts 90°
2026-04-22 18:38 49.90331 22.75282 22017 ft 441 kts 90°
2026-04-22 18:38 49.90108 22.80023 21809 ft 441 kts 90°
2026-04-22 18:38 49.89884 22.84760 21610 ft 440 kts 90°
2026-04-22 18:39 49.88571 22.94060 21556 ft 449 kts 107°
2026-04-22 18:39 49.87353 22.98521 21555 ft 450 kts 109°
2026-04-22 18:39 49.86103 23.02908 21300 ft 452 kts 109°
2026-04-22 18:39 49.84880 23.07363 20784 ft 448 kts 108°
2026-04-22 18:40 49.83719 23.11823 20274 ft 445 kts 107°
2026-04-22 18:40 49.82607 23.16280 19772 ft 442 kts 107°
2026-04-22 18:40 49.81526 23.20730 19273 ft 440 kts 107°
2026-04-22 18:40 49.80463 23.25158 18821 ft 439 kts 107°
2026-04-22 18:41 49.79404 23.29584 18327 ft 437 kts 107°
2026-04-22 18:41 49.78351 23.33980 17771 ft 435 kts 107°
2026-04-22 18:41 49.77300 23.38356 17233 ft 433 kts 107°
2026-04-22 18:41 49.76252 23.42704 16701 ft 430 kts 107°
2026-04-22 18:42 49.75208 23.47021 16179 ft 428 kts 107°
2026-04-22 18:42 49.74180 23.51266 15674 ft 426 kts 107°
2026-04-22 18:42 49.73141 23.55545 15170 ft 424 kts 108°
2026-04-22 18:42 49.72108 23.59787 14666 ft 416 kts 108°
2026-04-22 18:43 49.71107 23.63880 14168 ft 401 kts 108°
2026-04-22 18:43 49.70135 23.67849 13692 ft 388 kts 108°
2026-04-22 18:43 49.69193 23.71690 13130 ft 377 kts 108°
2026-04-22 18:43 49.68277 23.75424 12593 ft 367 kts 108°
2026-04-22 18:44 49.67382 23.79069 12052 ft 359 kts 108°
2026-04-22 18:44 49.66506 23.82630 11552 ft 352 kts 108°
2026-04-22 18:44 49.65657 23.86081 11046 ft 346 kts 108°
2026-04-22 18:44 49.64814 23.89496 10791 ft 333 kts 108°
2026-04-22 18:45 49.64006 23.92757 10657 ft 318 kts 108°
2026-04-22 18:45 49.63246 23.95817 10496 ft 299 kts 108°
2026-04-22 18:45 49.62471 23.98747 10117 ft 294 kts 116°
2026-04-22 18:45 49.61220 24.01241 9576 ft 294 kts 133°
2026-04-22 18:46 49.59734 24.03398 9094 ft 292 kts 136°
2026-04-22 18:46 49.58233 24.05498 8754 ft 292 kts 136°
2026-04-22 18:46 49.56737 24.07592 8404 ft 288 kts 136°
2026-04-22 18:46 49.55262 24.09664 7866 ft 290 kts 136°
2026-04-22 18:47 49.53776 24.11762 7241 ft 290 kts 136°
2026-04-22 18:47 49.52318 24.13840 6852 ft 281 kts 136°
2026-04-22 18:47 49.50917 24.15834 6551 ft 268 kts 137°
2026-04-22 18:47 49.49569 24.17723 6326 ft 258 kts 136°
2026-04-22 18:48 49.48245 24.19563 6095 ft 256 kts 143°
2026-04-22 18:48 49.46677 24.20801 5872 ft 253 kts 167°
2026-04-22 18:48 49.44950 24.21027 5661 ft 248 kts 191°
2026-04-22 18:48 49.43359 24.20248 5457 ft 241 kts 214°
2026-04-22 18:49 49.42131 24.18613 5292 ft 227 kts 239°
2026-04-22 18:49 49.41501 24.16488 5144 ft 215 kts 264°
2026-04-22 18:49 49.41549 24.14265 5074 ft 207 kts 290°
2026-04-22 18:49 49.42238 24.12381 5068 ft 203 kts 315°
2026-04-22 18:50 49.43407 24.11216 5061 ft 203 kts 340°
2026-04-22 18:50 49.44330 24.10969 5058 ft 205 kts 357°
2026-04-22 18:50 49.45730 24.11455 5054 ft 211 kts 21°
2026-04-22 18:50 49.47006 24.12536 4517 ft 212 kts 26°
2026-04-22 18:51 49.48259 24.13719 4071 ft 212 kts 26°
2026-04-22 18:51 49.49925 24.15300 3557 ft 212 kts 26°
2026-04-22 18:51 49.51183 24.16486 3199 ft 212 kts 26°
2026-04-22 18:51 49.52424 24.17665 3058 ft 209 kts 26°
2026-04-22 18:52 49.53259 24.18468 3030 ft 210 kts 26°
2026-04-22 18:52 49.54485 24.19644 3067 ft 211 kts 26°
2026-04-22 18:52 49.55729 24.20836 3052 ft 211 kts 26°
2026-04-22 18:52 49.56978 24.22022 3066 ft 211 kts 26°
2026-04-22 18:53 49.58230 24.23214 3028 ft 211 kts 26°
2026-04-22 18:53 49.59478 24.24406 3055 ft 211 kts 26°
2026-04-22 18:53 49.60721 24.25599 3051 ft 210 kts 27°
2026-04-22 18:53 49.61961 24.26779 3055 ft 210 kts 26°
2026-04-22 18:54 49.63206 24.27963 3031 ft 210 kts 26°
2026-04-22 18:54 49.64445 24.29157 3058 ft 211 kts 26°
2026-04-22 18:54 49.65688 24.30358 3056 ft 210 kts 26°
2026-04-22 18:54 49.66931 24.31538 3062 ft 208 kts 22°
2026-04-22 18:55 49.68121 24.32090 3023 ft 199 kts 359°
2026-04-22 18:55 49.69242 24.31836 3066 ft 196 kts 337°
2026-04-22 18:55 49.70330 24.30645 3025 ft 194 kts 309°
2026-04-22 18:55 49.70894 24.28738 3042 ft 200 kts 283°
2026-04-22 18:56 49.70794 24.26582 3061 ft 207 kts 260°
2026-04-22 18:56 49.70335 24.24441 3042 ft 210 kts 256°
2026-04-22 18:56 49.69854 24.22317 3065 ft 209 kts 256°
2026-04-22 18:56 49.69380 24.20197 3076 ft 209 kts 256°
2026-04-22 18:57 49.69062 24.18037 3037 ft 203 kts 274°
2026-04-22 18:57 49.69242 24.16003 3033 ft 179 kts 286°
2026-04-22 18:57 49.69499 24.14191 3073 ft 170 kts 286°
2026-04-22 18:57 49.69934 24.12561 2992 ft 163 kts 313°
2026-04-22 18:58 49.70716 24.11316 3104 ft 162 kts 314°
2026-04-22 18:58 49.71454 24.10120 3008 ft 146 kts 316°
2026-04-22 18:58 49.72171 24.09028 3079 ft 144 kts 316°
2026-04-22 18:58 49.72883 24.07948 3054 ft 143 kts 316°
2026-04-22 18:59 49.73598 24.06871 2932 ft 143 kts 316°
2026-04-22 18:59 49.74307 24.05804 2748 ft 142 kts 316°
2026-04-22 18:59 49.75019 24.04737 2547 ft 142 kts 316°
2026-04-22 18:59 49.75727 24.03677 2346 ft 142 kts 316°
2026-04-22 19:00 49.76195 24.02977 2206 ft 142 kts 316°
2026-04-22 19:00 49.77132 24.01572 1948 ft 142 kts 315°
2026-04-22 19:00 49.77860 24.00506 1774 ft 146 kts 316°
2026-04-22 19:00 49.78606 23.99404 1527 ft 151 kts 315°
2026-04-22 19:01 49.79367 23.98252 1313 ft 156 kts 314°
2026-04-22 19:01 49.80143 23.97088 1089 ft 155 kts 315°
2026-04-22 19:01 49.80816 23.96078 1071 ft 107 kts 315°
2026-04-22 19:01 49.81208 23.95487 1078 ft 50 kts 316°
2026-04-22 19:02 49.81377 23.95232 1076 ft 31 kts 316°
2026-04-22 19:02 49.81520 23.95018 1071 ft 27 kts 316°
2026-04-22 19:02 49.81636 23.94845 1072 ft 17 kts 316°
2026-04-22 19:02 49.81674 23.94805 1074 ft 0 kts 330°
2026-04-22 19:03 49.81689 23.94806 1073 ft 3 kts
2026-04-22 19:03 49.81706 23.94820 1075 ft 4 kts 31°
2026-04-22 19:03 49.81736 23.94861 1078 ft 6 kts 45°
2026-04-22 19:04 49.81766 23.94914 1076 ft 5 kts 56°
2026-04-22 19:04 49.81767 23.94968 1077 ft 7 kts 102°
2026-04-22 19:04 49.81732 23.95042 1076 ft 9 kts 133°
2026-04-22 19:04 49.81727 23.95050 1076 ft 0 kts 133°
2026-04-22 19:05 49.81726 23.95052 1076 ft 2 kts 133°
2026-04-22 19:05 49.81683 23.95120 1076 ft 16 kts 138°
2026-04-22 19:05 49.81621 23.95212 1074 ft 1 kts 125°
2026-04-22 19:06 49.81622 23.95222 1074 ft 1 kts 95°
2026-04-22 19:06 49.81626 23.95268 1076 ft 8 kts 78°
2026-04-22 19:06 49.81643 23.95346 1074 ft 5 kts 67°
2026-04-22 19:07 49.81649 23.95369 1076 ft 0 kts 68°
2026-04-22 19:23 49.81649 23.95368 1073 ft 0 kts 68°